Location: *
(18.5200°S, 46.4500°E)
Time: 01:33:26
(UTC+00:00)

Palapa 6 Rocket - Pass Details

Date: 19 July 2019
Orbit: 485 x 1218 km, 22.7° (Epoch: 22 August)

Event Time Altitude Azimuth Distance (km) Brightness Sun altitude
Rises 15:08:42 0° 264° (W) 3,083 8.0 -8.3°
Reaches altitude 10° 15:10:57 10° 259° (W) 2,269 7.0 -8.8°
Maximum altitude 15:16:20 58° 180° (S) 1,012 4.0 -10.0°
Enters shadow 15:22:03 14° 104° (ESE) 2,468 5.4 -11.3°
